Regional Weather Roundup
Issued by NWS

Home | Current Version | Previous Version | Graphics & Text | Print | Product List | Glossary On
Versions: 1 2 3 4 5 6 7 8 9 10 11 12 13 14 15 16 17 18 19 20 21 22 23 24 25 26 27 28 29 30 31 32 33 34 35 36 37 38 39 40 41 42 43 44 45 46 47 48 49 50
722
ASUS44 KJAN 270410
RWRMS

MISSISSIPPI HOURLY WEATHER ROUNDUP
NATIONAL WEATHER SERVICE JACKSON MS
1000 PM CST MON JAN 26 2015

NOTE: "FAIR: INDICATES FEW OR NO CLOUDS BELOW 12,000 FEET WITH NO
SIGNIFICANT WEATHER AND/OR OBSTRUCTIONS TO VISIBILITY.

MSZ001>002-007>008-010>013-018>021-025>028-034>036-270500-
NORTHWEST MISSISSIPPI

CITY           SKY/WX    TMP DP  RH WIND       PRES   REMARKS
CLARKSDALE     FAIR      41  37  87 SW7       29.98F
CLEVELAND      FAIR      44  40  87 SW6       30.00S
GREENWOOD      CLEAR     38  34  85 S5        30.01F WCI  34
GREENVILLE     CLEAR     48  36  63 SW9       30.00F
GRENADA        FAIR      37  36  93 W3        30.00F
OLIVE BRANCH   CLEAR     34  34 100 S7        29.96S WCI  28
OXFORD         FAIR      36  32  87 SW3       29.98F
TUNICA         CLEAR     39  34  81 SW8       29.97F WCI  34
$$

MSZ003>006-009-014>017-022>024-029>033-037>039-270500-
NORTHEAST MISSISSIPPI

CITY           SKY/WX    TMP DP  RH WIND       PRES   REMARKS
COLUMBUS AFB   CLEAR     33  29  86 E3        30.01F
CORINTH        FAIR      34  30  86 CALM      29.96F
GOLDN TRIANGLE CLEAR     37  30  75 SW3       29.99F
STARKVILLE     FAIR      34  32  93 CALM      30.01F
TUPELO         CLEAR     37  30  75 SE3       29.99S
$$

MSZ040-058-270500-
CENTRAL MISSISSIPPI

CITY           SKY/WX    TMP DP  RH WIND       PRES   REMARKS
JACKSON INTL   CLEAR     43  33  68 S5        30.05R
JACKSON HAWKNS CLEAR     45  34  65 W7        30.05R
MERIDIAN KEY   CLEAR     36  33  89 CALM      30.05R
MERIDIAN NAS   CLEAR     39  32  76 CALM      30.04R
RAYMOND        FAIR      37  34  87 MISG      30.06R
VICKSBURG      CLEAR     42  35  76 SW3       30.07R
$$

MSZ059>079-270500-
SOUTH MISSISSIPPI

CITY           SKY/WX    TMP DP  RH WIND       PRES   REMARKS
BROOKHAVEN     FAIR      45  36  70 W6        30.07R
HATTIESBURG    CLEAR     40  35  83 CALM      30.06R
MCCOMB         CLEAR     45  34  65 W6        30.06S
NATCHEZ        CLEAR     45  34  65 SW6       30.08R
PINE BELT      CLEAR     45  32  61 W5        30.05S
$$

MSZ080>082-270500-
COASTAL MISSISSIPPI

CITY           SKY/WX    TMP DP  RH WIND       PRES   REMARKS
BILOXI         CLEAR     46  39  77 SW5       30.05F
PASCAGOULA     CLEAR     38  36  92 CALM      30.06S
GULFPORT       CLEAR     41  36  82 CALM      30.05F
$$



USA.gov is the U.S. government's official web portal to all federal, state and local government web resources and services.